TimeCST,TemperatureF,Dew PointF,Humidity,Sea Level PressureIn,VisibilityMPH,Wind Direction,Wind SpeedMPH,Gust SpeedMPH,PrecipitationIn,Events,Conditions,WindDirDegrees,DateUTC
12:52 AM,24.1,7.0,48,30.29,-9999.0,NNE,4.6,-,N/A,,Unknown,20,2013-01-25 06:52:00
1:52 AM,24.1,7.0,48,30.27,-9999.0,Calm,Calm,-,N/A,,Unknown,0,2013-01-25 07:52:00
2:52 AM,24.1,8.1,51,30.27,-9999.0,Calm,Calm,-,N/A,,Unknown,0,2013-01-25 08:52:00
3:52 AM,24.1,8.1,51,30.22,-9999.0,Calm,Calm,-,N/A,,Unknown,0,2013-01-25 09:52:00
4:52 AM,23.0,8.1,53,30.22,-9999.0,Calm,Calm,-,N/A,,Unknown,0,2013-01-25 10:52:00
5:52 AM,19.0,8.1,62,30.23,-9999.0,Calm,Calm,-,N/A,,Unknown,0,2013-01-25 11:52:00
6:52 AM,16.0,8.1,71,30.24,-9999.0,Calm,Calm,-,N/A,,Unknown,0,2013-01-25 12:52:00
7:52 AM,16.0,8.1,71,30.26,-9999.0,Calm,Calm,-,N/A,,Unknown,0,2013-01-25 13:52:00
8:52 AM,23.0,9.0,55,30.25,-9999.0,SW,5.8,-,N/A,,Unknown,220,2013-01-25 14:52:00
9:52 AM,28.0,10.9,49,30.25,-9999.0,West,8.1,-,N/A,,Unknown,280,2013-01-25 15:52:00
10:52 AM,30.9,12.0,46,30.25,-9999.0,WNW,6.9,-,N/A,,Unknown,290,2013-01-25 16:52:00
11:52 AM,37.0,14.0,39,30.24,-9999.0,West,5.8,-,N/A,,Unknown,280,2013-01-25 17:52:00
12:52 PM,39.9,16.0,38,30.21,-9999.0,West,8.1,-,N/A,,Unknown,280,2013-01-25 18:52:00
1:52 PM,46.0,18.0,33,30.17,-9999.0,NW,8.1,-,N/A,,Unknown,310,2013-01-25 19:52:00
2:52 PM,46.9,18.0,32,30.18,-9999.0,West,9.2,-,N/A,,Unknown,280,2013-01-25 20:52:00
3:52 PM,48.0,18.0,30,30.18,-9999.0,Variable,5.8,-,N/A,,Unknown,0,2013-01-25 21:52:00
4:52 PM,45.0,19.0,36,30.20,-9999.0,Variable,3.5,-,N/A,,Unknown,0,2013-01-25 22:52:00
5:52 PM,41.0,19.0,41,30.22,-9999.0,WNW,3.5,-,N/A,,Unknown,290,2013-01-25 23:52:00
6:52 PM,32.0,19.0,59,30.25,-9999.0,WSW,4.6,-,N/A,,Unknown,250,2013-01-26 00:52:00
7:52 PM,36.0,19.9,52,30.25,-9999.0,Calm,Calm,-,N/A,,Unknown,0,2013-01-26 01:52:00
8:52 PM,30.9,19.9,64,30.27,-9999.0,Calm,Calm,-,N/A,,Unknown,0,2013-01-26 02:52:00
9:52 PM,28.9,19.0,67,30.30,-9999.0,Calm,Calm,-,N/A,,Unknown,0,2013-01-26 03:52:00
10:52 PM,30.0,19.9,66,30.30,-9999.0,NW,3.5,-,N/A,,Unknown,310,2013-01-26 04:52:00
11:52 PM,30.0,19.9,66,30.31,-9999.0,NNW,4.6,-,N/A,,Unknown,340,2013-01-26 05:52:00